Regional Weather Roundup
Issued by NWS Cleveland, OH

Home | Current Version | Previous Version | Text Only | Print | Product List | Glossary Off
Versions: 1 2 3 4 5 6 7 8 9 10 11 12 13 14 15 16 17 18 19 20 21 22 23 24 25 26 27 28 29 30 31 32 33 34 35 36 37 38 39 40 41 42 43 44 45 46 47 48 49 50

000
ASUS41 KCLE 212310
RWRCLE
OHIO REGIONAL WEATHER ROUNDUP
NATIONAL WEATHER SERVICE WILMINGTON, OH
700 PM EDT THU AUG 21 2014

NOTE: "FAIR" INDICATES FEW OR NO CLOUDS BELOW 12,000 FEET WITH NO
SIGNIFICANT WEATHER AND/OR OBSTRUCTIONS TO VISIBILITY.

OHZ001>008-015>018-024>027-034-035-043-044-220000-
   NORTHWEST OHIO

CITY           SKY/WX    TMP DP  RH WIND       PRES   REMARKS
DEFIANCE       MOSUNNY   78  69  73 SW8       29.98F
FINDLAY        PTSUNNY   77  68  73 W9        30.00R
TOLEDO EXPRESS CLOUDY    78  69  73 SW12      29.96F
TOLEDO METCALF PTSUNNY   79  69  71 SW9       29.98S
LIMA           PTSUNNY   77  71  82 SW6       30.01S
$$

OHZ009>014-019>023-028>033-038-089-220000-
   NORTHEAST OHIO

CITY           SKY/WX    TMP DP  RH WIND       PRES   REMARKS
CLE-HOPKINS    PTSUNNY   76  68  76 SW16      30.00R
CLE-LAKEFRONT  CLOUDY    76  70  82 CALM      29.97R
CUY CO. ARPT   PTSUNNY   79  70  73 NW9       29.99S
LORAIN-ELYRIA  PTSUNNY   78  68  71 W13       30.00S
ASHTABULA      CLOUDY    76  70  82 W5        30.00S
AKRON-CANTON   CLOUDY    75  65  70 W10       30.02S
WOOSTER        CLOUDY    74  67  78 W3        30.03S
MANSFIELD      CLOUDY    73  68  84 SW7       30.03S
YOUNGSTOWN     CLOUDY    74  68  81 E3        30.00S
$$

OHZ042-051>053-060>062-070>072-077>081-220000-
  SOUTHWEST OHIO

CITY           SKY/WX    TMP DP  RH WIND       PRES   REMARKS
CINC-COVINGTON MOSUNNY   83  74  74 S7        30.02S
CINC-LUNKEN    MOSUNNY   81  74  79 S5        30.01F
HAMILTON       PTSUNNY   82  73  74 CALM      30.01F
DAYTON         PTSUNNY   78  70  76 S6        30.03F
WRIGHT-PAT AFB PTSUNNY   78  71  78 S7        30.02F
DAYTON GENERAL PTSUNNY   78  72  81 S6        30.02F
WILMINGTON     MOSUNNY   77  71  82 SW7       30.04S
$$

OHZ036-037-039>041-045>050-054>059-063>069-073>076-082>088-220000-
  CENTRAL AND SOUTHEAST OHIO

CITY           SKY/WX    TMP DP  RH WIND       PRES   REMARKS
COLUMBUS       CLOUDY    76  68  76 CALM      30.03R
OSU AIRPORT    CLOUDY    74  69  85 SW6       30.03R
BOLTON FIELD   CLOUDY    73  72  94 SW3       30.03
RICKENBACK AFB PTSUNNY   72  67  85 CALM      30.02R
NEWARK         PTSUNNY   74  68  81 SW6       30.03S
MARION         PTSUNNY   75  67  76 VRB7      30.02S
LANCASTER      PTSUNNY   73  68  84 W3        30.04R
ZANESVILLE     CLOUDY    74  67  78 SW7       30.05R
NEW PHILLY     CLOUDY    73  69  87 SW3       30.04R
$$


USA.gov is the U.S. government's official web portal to all federal, state and local government web resources and services.